[[{"header":{"parameterUnit":"m.s-1","parameterCategory":1,"la1":30.2991,"la2":30.254,"lo1":-89.0895,"lo2":-89.0444,"dy":0.0017,"dx":0.0017,"nx":28,"ny":28,"refTime":"2025-02-25T09:00:00:Z","depth":0,"parameterNumber":2,"parameterNumberName":"U-component_of_WINDS"},"data":[0,0,0,0,0,0,0,0,0,0,0,0,0,0,0,0,0,0,0,0,0,0,0,0,0,0,0,0,0,0,0,0,0,0,0,0,0,0,0,0,0,0,0,0,0,0,0,0,0,0,0,0,0,0,0,0,0,0,-0.5481,-0.5482,0,-0.5518,-0.5519,-0.5519,-0.5526,-0.5526,-0.5525,-0.5525,-0.5563,-0.5564,-0.5566,0,0,0,0,0,0,0,0,0,0,0,0,0,-0.5417,-0.5418,-0.5481,-0.5482,-0.5482,-0.5518,-0.5519,-0.5519,-0.5526,-0.5526,-0.5525,-0.5525,-0.5563,-0.5564,-0.5566,0,0,0,0,0,0,0,0,0,0,0,0,0,-0.5449,-0.5419,-0.5481,-0.549,-0.5491,-0.5518,-0.5519,-0.5519,-0.5526,-0.5526,-0.5525,-0.5525,-0.5562,-0.5564,-0.5566,-0.5587,0,0,-0.5572,-0.5573,0,0,0,0,0,0,0,0,-0.5447,-0.5451,-0.5488,-0.5489,-0.5491,-0.5517,-0.551,-0.5542,-0.5526,-0.5513,-0.5525,-0.5525,-0.5548,-0.5551,-0.5559,-0.5589,-0.559,-0.5572,-0.5573,-0.5574,-0.5575,0,0,0,0,0,0,0,-0.5445,-0.5449,-0.5496,-0.5489,-0.549,-0.5492,-0.5496,-0.5516,-0.5533,-0.5514,-0.5515,-0.5519,-0.5549,-0.5557,-0.556,-0.5591,-0.5572,-0.5574,-0.5575,-0.5576,-0.564,-0.5641,0,0,0,0,0,0,-0.5441,-0.5447,-0.5495,-0.5497,-0.5467,-0.5494,-0.5498,-0.5509,-0.5532,-0.5535,-0.5519,-0.5519,-0.5554,-0.5558,-0.5561,-0.5588,-0.5574,-0.5576,-0.5577,-0.564,-0.564,-0.5641,0,0,0,0,0,0,-0.5439,-0.5445,-0.5493,-0.5473,-0.5479,-0.5495,-0.5508,-0.551,-0.5519,-0.5536,-0.5539,-0.5525,-0.5554,-0.5559,-0.5581,-0.5589,-0.5577,-0.5578,-0.5639,-0.564,-0.5641,-0.564,0,0,0,0,0,0,-0.5438,-0.5444,-0.5452,-0.5473,-0.548,-0.5512,-0.5508,-0.5511,-0.5522,-0.5522,-0.5542,-0.5545,-0.5554,-0.5578,-0.5583,-0.5592,-0.558,-0.5638,-0.5639,-0.564,-0.564,-0.5641,-0.5642,0,0,0,0,0,-0.5435,-0.5451,-0.5453,-0.5458,-0.549,-0.5512,-0.5516,-0.5526,-0.5523,-0.5531,-0.5542,-0.5545,-0.5588,-0.558,-0.5585,-0.5595,-0.5638,-0.5639,-0.564,-0.5639,-0.5641,-0.5642,0,0,0,0,0,0,-0.5431,-0.5453,-0.5456,-0.5478,-0.5493,-0.5513,-0.5524,-0.5527,-0.5543,-0.5543,-0.5554,-0.5559,-0.558,-0.559,-0.5581,-0.5617,-0.5613,-0.5615,-0.561,-0.5611,-0.5613,-0.5609,-0.5582,0,0,0,0,0,-0.5432,-0.5448,-0.5467,-0.5485,-0.5493,-0.5507,-0.5517,-0.5523,-0.5539,-0.5545,-0.5558,-0.5574,-0.5591,-0.5602,-0.5618,-0.5641,-0.5646,-0.5651,-0.5652,-0.5653,-0.5655,-0.5668,-0.567,-0.5645,-0.5645,-0.5645,0,0,-0.5436,-0.545,-0.5459,-0.5485,-0.5497,-0.5513,-0.5512,-0.5529,-0.5542,-0.5548,-0.5569,-0.558,-0.5598,-0.562,-0.5631,-0.5629,-0.5663,-0.5655,-0.5655,-0.5656,-0.5669,-0.5672,-0.5674,-0.5646,-0.5646,-0.5646,0,0,-0.545,-0.5463,-0.5479,-0.5492,-0.551,-0.552,-0.5524,-0.5544,-0.5551,-0.5573,-0.5578,-0.5593,-0.5622,-0.5635,-0.5645,-0.5665,-0.5668,-0.5671,-0.5677,-0.569,-0.5692,-0.5693,-0.57,-0.5703,-0.5672,-0.5672,-0.5672,0,-0.5452,-0.5476,-0.5487,-0.5504,-0.5515,-0.5522,-0.5539,-0.5551,-0.5574,-0.5582,-0.5579,-0.5616,-0.5629,-0.5655,-0.566,-0.5668,-0.5673,-0.5668,-0.569,-0.5692,-0.5694,-0.5701,-0.5704,-0.5673,-0.5673,-0.5673,-0.5673,0,-0.5478,-0.5495,-0.5506,-0.5528,-0.5541,-0.5558,-0.5571,-0.5583,-0.5588,-0.5598,-0.5621,-0.5636,-0.5656,-0.5663,-0.5668,-0.569,-0.5688,-0.5688,-0.5684,-0.5697,-0.5703,-0.5706,-0.5673,-0.5673,-0.5673,-0.5673,0,0,-0.5489,-0.5518,-0.5522,-0.5532,-0.5554,-0.5567,-0.5585,-0.5605,-0.5614,-0.5631,-0.5646,-0.567,-0.5671,-0.5683,-0.569,-0.5701,-0.5716,-0.57,-0.57,-0.5702,-0.5741,-0.574,-0.5743,-0.5719,-0.5719,-0.572,-0.5739,0,-0.5505,-0.5537,-0.5547,-0.5573,-0.5589,-0.5597,-0.5612,-0.5628,-0.5638,-0.5653,-0.5664,-0.5682,-0.5681,-0.5688,-0.57,-0.5712,-0.5724,-0.5711,-0.5732,-0.5733,-0.5727,-0.5746,-0.5746,-0.5763,-0.5742,-0.5742,-0.5742,0,-0.5529,-0.5545,-0.5573,-0.5593,-0.5601,-0.5614,-0.5633,-0.5648,-0.5666,-0.5672,-0.5686,-0.5692,-0.5711,-0.5707,-0.5733,-0.5724,-0.5734,-0.5741,-0.5742,-0.5744,-0.5738,-0.5748,-0.5769,-0.5771,-0.5747,-0.5746,-0.5746,0,-0.5534,-0.5563,-0.5584,-0.5592,-0.5617,-0.5626,-0.5637,-0.5654,-0.5666,-0.5683,-0.569,-0.5709,-0.572,-0.5734,-0.5746,-0.5742,-0.5772,-0.5768,-0.5777,-0.5777,-0.5783,-0.5782,-0.5805,-0.579,-0.579,-0.579,-0.579,0,-0.5551,-0.5567,-0.5586,-0.5599,-0.5618,-0.563,-0.5649,-0.566,-0.5675,-0.569,-0.5698,-0.5712,-0.5727,-0.5743,-0.5752,-0.5773,-0.5778,-0.5784,-0.5786,-0.5782,-0.5782,-0.5788,-0.5787,-0.5791,-0.5791,-0.579,-0.579,0,-0.5559,-0.5572,-0.5595,-0.5617,-0.5622,-0.5635,-0.5654,-0.5667,-0.5678,-0.5696,-0.5702,-0.5719,-0.5738,-0.5752,-0.5776,-0.5783,-0.5805,-0.5807,-0.5799,-0.58,-0.5808,-0.5807,-0.5836,-0.584,-0.5823,-0.5823,-0.5823,0,-0.5568,-0.5581,-0.5604,-0.5615,-0.5626,-0.5643,-0.5655,-0.5668,-0.568,-0.5702,-0.5712,-0.5732,-0.5748,-0.5779,-0.5794,-0.5813,-0.5815,-0.5824,-0.5818,-0.5815,-0.5815,-0.5814,-0.5815,-0.5825,-0.5825,-0.5825,-0.5825,0,-0.5584,-0.559,-0.5607,-0.5626,-0.564,-0.5656,-0.5672,-0.568,-0.5696,-0.571,-0.573,-0.5743,-0.5768,-0.5788,-0.5809,-0.582,-0.5825,-0.5827,-0.583,-0.5826,-0.5821,-0.5824,-0.58,-0.5826,-0.5826,-0.5826,-0.5826,-0.5826,-0.5593,-0.5605,-0.5623,-0.5642,-0.5655,-0.567,-0.5683,-0.5696,-0.5713,-0.5735,-0.5742,-0.5762,-0.5781,-0.5809,-0.5821,-0.5837,-0.5837,-0.5841,-0.5842,-0.5843,-0.5843,-0.5819,-0.5841,-0.5841,-0.5841,-0.5841,-0.5841,0,-0.5608,-0.562,-0.5638,-0.566,-0.5675,-0.5679,-0.5697,-0.5709,-0.5727,-0.5744,-0.576,-0.5783,-0.5803,-0.582,-0.584,-0.585,-0.5853,-0.5855,-0.5854,-0.5856,-0.5843,-0.5838,-0.5852,-0.5852,-0.5852,-0.5852,-0.5852,-0.5852,-0.5618,-0.5638,-0.5647,-0.5675,-0.5687,-0.5707,-0.5717,-0.5731,-0.5745,-0.577,-0.5787,-0.5798,-0.5814,-0.5836,-0.5854,-0.5859,-0.5866,-0.5867,-0.5872,-0.5859,-0.5857,-0.5856,-0.5851,-0.5868,-0.5868,-0.5884,-0.5884,-0.5884]},{"header":{"parameterUnit":"m.s-1","parameterCategory":1,"la1":30.2991,"la2":30.254,"lo1":-89.0895,"lo2":-89.0444,"dy":0.0017,"dx":0.0017,"nx":28,"ny":28,"refTime":"2025-02-25T09:00:00:Z","depth":0,"parameterNumber":3,"parameterNumberName":"V-component_of_WINDS"},"data":[0,0,0,0,0,0,0,0,0,0,0,0,0,0,0,0,0,0,0,0,0,0,0,0,0,0,0,0,0,0,0,0,0,0,0,0,0,0,0,0,0,0,0,0,0,0,0,0,0,0,0,0,0,0,0,0,0,0,-0.0243,-0.0243,0,-0.0278,-0.0279,-0.0279,-0.0294,-0.0294,-0.0294,-0.0294,-0.0333,-0.0335,-0.0336,0,0,0,0,0,0,0,0,0,0,0,0,0,-0.0189,-0.019,-0.0243,-0.0243,-0.0243,-0.0278,-0.0279,-0.0279,-0.0294,-0.0294,-0.0294,-0.0293,-0.0333,-0.0334,-0.0336,0,0,0,0,0,0,0,0,0,0,0,0,0,-0.0218,-0.019,-0.0242,-0.0255,-0.0256,-0.0278,-0.0279,-0.028,-0.0294,-0.0294,-0.0294,-0.0293,-0.0333,-0.0334,-0.0336,-0.0349,0,0,-0.0341,-0.0342,0,0,0,0,0,0,0,0,-0.0216,-0.022,-0.0252,-0.0254,-0.0256,-0.0281,-0.0275,-0.0303,-0.0294,-0.028,-0.0294,-0.0293,-0.0316,-0.0319,-0.0327,-0.0351,-0.0353,-0.0341,-0.0342,-0.0343,-0.0344,0,0,0,0,0,0,0,-0.0214,-0.0218,-0.0257,-0.0253,-0.0255,-0.0259,-0.0263,-0.028,-0.0299,-0.0281,-0.0282,-0.0286,-0.0317,-0.0325,-0.0328,-0.0354,-0.0341,-0.0343,-0.0344,-0.0345,-0.0391,-0.0392,0,0,0,0,0,0,-0.021,-0.0216,-0.0256,-0.0258,-0.0235,-0.026,-0.0265,-0.0273,-0.0298,-0.0302,-0.0286,-0.0286,-0.0322,-0.0326,-0.0329,-0.0347,-0.0343,-0.0345,-0.0346,-0.0391,-0.0391,-0.0392,0,0,0,0,0,0,-0.0208,-0.0213,-0.0254,-0.0237,-0.0243,-0.0262,-0.0271,-0.0274,-0.0282,-0.0302,-0.0306,-0.029,-0.0322,-0.0327,-0.0344,-0.0348,-0.0346,-0.0347,-0.0391,-0.0391,-0.0392,-0.0382,0,0,0,0,0,0,-0.0207,-0.0212,-0.0217,-0.0237,-0.0244,-0.0268,-0.0271,-0.0275,-0.0284,-0.0285,-0.0307,-0.0311,-0.0322,-0.0341,-0.0346,-0.0351,-0.0348,-0.0391,-0.0391,-0.0391,-0.0382,-0.0382,-0.0382,0,0,0,0,0,-0.0205,-0.0214,-0.0217,-0.0222,-0.025,-0.0268,-0.0272,-0.0284,-0.0285,-0.029,-0.0303,-0.031,-0.0347,-0.0343,-0.0348,-0.0353,-0.039,-0.0391,-0.0391,-0.0382,-0.0382,-0.0382,0,0,0,0,0,0,-0.0194,-0.0216,-0.0221,-0.0236,-0.025,-0.027,-0.0277,-0.0284,-0.0298,-0.0299,-0.0314,-0.0319,-0.0335,-0.0346,-0.0341,-0.0368,-0.0369,-0.0371,-0.036,-0.036,-0.036,-0.0358,-0.035,0,0,0,0,0,-0.0194,-0.0205,-0.0224,-0.0236,-0.0243,-0.0259,-0.0267,-0.0275,-0.0291,-0.0297,-0.0311,-0.0327,-0.0342,-0.0352,-0.0367,-0.0383,-0.0389,-0.0389,-0.0389,-0.0389,-0.0391,-0.04,-0.0401,-0.0393,-0.0393,-0.0393,0,0,-0.0193,-0.0206,-0.0213,-0.0234,-0.0246,-0.0259,-0.0264,-0.0277,-0.0287,-0.0299,-0.0316,-0.0327,-0.0346,-0.0363,-0.0371,-0.0372,-0.0394,-0.039,-0.0389,-0.0391,-0.0401,-0.0402,-0.0402,-0.0393,-0.0393,-0.0393,0,0,-0.0197,-0.0208,-0.0219,-0.0231,-0.0248,-0.0258,-0.0261,-0.028,-0.0288,-0.0305,-0.0315,-0.0327,-0.0353,-0.0366,-0.0375,-0.0384,-0.0392,-0.0389,-0.0389,-0.0398,-0.0399,-0.04,-0.0403,-0.0404,-0.039,-0.039,-0.039,0,-0.0194,-0.0213,-0.0225,-0.0237,-0.0247,-0.0257,-0.0269,-0.028,-0.0302,-0.0308,-0.0309,-0.0341,-0.0355,-0.0375,-0.0377,-0.0384,-0.0389,-0.0387,-0.0398,-0.0398,-0.0399,-0.0403,-0.0404,-0.039,-0.039,-0.039,-0.039,0,-0.0209,-0.0221,-0.0228,-0.0248,-0.0258,-0.027,-0.0284,-0.0294,-0.0301,-0.0312,-0.0329,-0.0345,-0.0364,-0.0369,-0.0377,-0.0391,-0.0391,-0.0394,-0.0396,-0.0399,-0.0403,-0.0405,-0.0389,-0.0389,-0.0389,-0.039,0,0,-0.0208,-0.0233,-0.0236,-0.0245,-0.0264,-0.0275,-0.0288,-0.0305,-0.0313,-0.0327,-0.0339,-0.036,-0.0363,-0.0375,-0.0384,-0.0392,-0.0399,-0.0395,-0.0396,-0.0395,-0.0416,-0.0413,-0.0414,-0.0403,-0.0404,-0.0404,-0.0414,0,-0.0216,-0.0238,-0.0249,-0.0267,-0.0279,-0.029,-0.0301,-0.0315,-0.0325,-0.0338,-0.035,-0.0364,-0.0367,-0.0374,-0.0383,-0.0396,-0.0403,-0.0395,-0.0416,-0.0416,-0.0411,-0.0416,-0.0414,-0.0423,-0.0416,-0.0416,-0.0416,0,-0.0228,-0.0241,-0.026,-0.0278,-0.0284,-0.0294,-0.031,-0.0322,-0.0338,-0.0345,-0.0357,-0.0366,-0.0381,-0.0381,-0.0402,-0.0397,-0.0405,-0.0413,-0.0414,-0.0417,-0.0417,-0.042,-0.0426,-0.0427,-0.0419,-0.0418,-0.0418,0,-0.0226,-0.0249,-0.0263,-0.0271,-0.0292,-0.0299,-0.0308,-0.0324,-0.0333,-0.0348,-0.0355,-0.0371,-0.0381,-0.0394,-0.0407,-0.0406,-0.0427,-0.0429,-0.0434,-0.0434,-0.0439,-0.0439,-0.0447,-0.0444,-0.0444,-0.0444,-0.0444,0,-0.0234,-0.0246,-0.0263,-0.0272,-0.0285,-0.0297,-0.0311,-0.0321,-0.0335,-0.0346,-0.0356,-0.0368,-0.0384,-0.0398,-0.0408,-0.0425,-0.0429,-0.0436,-0.0438,-0.0435,-0.0434,-0.0442,-0.0441,-0.0444,-0.0444,-0.0444,-0.0444,0,-0.0235,-0.0247,-0.0263,-0.0281,-0.0286,-0.0295,-0.0311,-0.0321,-0.0331,-0.0346,-0.035,-0.0367,-0.0384,-0.0398,-0.042,-0.0427,-0.0444,-0.0447,-0.0438,-0.044,-0.0445,-0.0445,-0.0459,-0.0462,-0.0456,-0.0456,-0.0456,0,-0.0239,-0.0248,-0.0267,-0.0275,-0.0284,-0.0297,-0.0306,-0.0319,-0.0329,-0.0347,-0.0355,-0.0371,-0.0386,-0.0411,-0.0426,-0.0443,-0.0447,-0.0451,-0.045,-0.0446,-0.0448,-0.0448,-0.0449,-0.0451,-0.0451,-0.0451,-0.0451,0,-0.0246,-0.0251,-0.0264,-0.0279,-0.0289,-0.0302,-0.0315,-0.0321,-0.0336,-0.0347,-0.0363,-0.0374,-0.0396,-0.0413,-0.0431,-0.0442,-0.045,-0.0451,-0.0454,-0.0451,-0.0445,-0.0449,-0.0439,-0.0451,-0.0451,-0.0451,-0.0451,-0.0451,-0.0249,-0.0257,-0.0272,-0.0286,-0.0296,-0.0308,-0.0318,-0.0329,-0.0342,-0.036,-0.0367,-0.0384,-0.04,-0.0426,-0.0436,-0.045,-0.0452,-0.0455,-0.0456,-0.0457,-0.0456,-0.0442,-0.0454,-0.0454,-0.0454,-0.0454,-0.0454,0,-0.0257,-0.0266,-0.0279,-0.0296,-0.0307,-0.0311,-0.0326,-0.0335,-0.0349,-0.0363,-0.0377,-0.0395,-0.0412,-0.0428,-0.0445,-0.0453,-0.0457,-0.0457,-0.0457,-0.046,-0.0454,-0.045,-0.0454,-0.0454,-0.0454,-0.0454,-0.0454,-0.0454,-0.0262,-0.0276,-0.0283,-0.0303,-0.0313,-0.0328,-0.0336,-0.0348,-0.0359,-0.0379,-0.0392,-0.0402,-0.0417,-0.0435,-0.0451,-0.0455,-0.0461,-0.0461,-0.0466,-0.046,-0.046,-0.046,-0.0457,-0.0462,-0.0462,-0.0471,-0.0471,-0.0471]}]]